Weather History for Lexington, NE

Change the Weather History Date:

Sunday, June 10, 2012

  Actual Average Record
Temperature  
Mean Temperature 68 °F -  
Max Temperature 79 °F 77 °F 96 °F (2013)
Min Temperature 57 °F 53 °F 46 °F (1997)
Cooling Degree Days 4    
Growing Degree Days 18 (Base 50)    
Moisture  
Dew Point 56 °F    
Average Humidity 61    
Maximum Humidity 80    
Minimum Humidity 31    
Precipitation  
Precipitation 0.00 in - - ()
Sea Level Pressure  
Sea Level Pressure 29.69 in    
Wind  
Wind Speed 16 mph (NE)    
Max Wind Speed 25 mph    
Max Gust Speed 34 mph    
Visibility 10 miles    
Events      
Averages and records for this station are not official NWS values.
T = Trace of Precipitation, MM = Missing Value Source: NWS Daily Summary

Daily Weather History Graph

Daily Weather History Graph

Search for Another Location

Airport:

Trip Planner

Search our weather history database for the weather conditions in past years. The results will help you decide how hot, cold, wet, or windy it might be!

Date:

Astronomy

Jun. 10, 2012 Rise Set
Actual Time 6:07 AM CDT 9:10 PM CDT
Civil Twilight 5:34 AM CDT 9:43 PM CDT
Nautical Twilight 4:51 AM CDT 10:26 PM CDT
Astronomical Twilight 4:01 AM CDT 11:15 PM CDT
Moon 1:01 AM CDT (6/10) 12:59 PM CDT (6/10)
Length of Visible Light 16h 09m
Length of Day
15h 03m
Waning Gibbous, 58% of the Moon is Illuminated
Jun 10
Waning Gibbous
Jun 11
Last Quarter
Jun 19
New
Jun 26
First Quarter
Jul 3
Full

Hourly Weather History & Observations

Time (CDT) Temp. Dew Point Humidity Pressure Visibility Wind Dir Wind Speed Gust Speed Precip Events Conditions
12:15 AM 78.6 °F 63.9 °F 60% 29.56 in 10.0 mi SE 18.4 mph 26.5 mph N/A   Clear
12:35 AM 77.9 °F 64.4 °F 63% 29.56 in 10.0 mi SSE 20.7 mph 28.8 mph N/A   Clear
12:55 AM 77.4 °F 64.6 °F 65% 29.55 in 10.0 mi SSE 20.7 mph 28.8 mph N/A   Clear
1:15 AM 76.5 °F 64.6 °F 67% 29.54 in 10.0 mi SSE 23.0 mph 29.9 mph N/A   Clear
1:35 AM 76.1 °F 64.6 °F 67% 29.54 in 10.0 mi SSE 18.4 mph 27.6 mph N/A   Clear
1:55 AM 75.4 °F 64.4 °F 69% 29.53 in 10.0 mi SSE 19.6 mph 26.5 mph N/A   Clear
2:15 AM 74.8 °F 64.4 °F 70% 29.53 in 10.0 mi SSE 19.6 mph 26.5 mph N/A   Clear
2:35 AM 74.3 °F 64.0 °F 70% 29.53 in 10.0 mi SSE 23.0 mph 29.9 mph N/A   Clear
2:55 AM 73.6 °F 64.0 °F 72% 29.54 in 10.0 mi SSE 17.3 mph 25.3 mph N/A   Clear
3:15 AM 73.0 °F 63.9 °F 73% 29.53 in 10.0 mi SSE 16.1 mph 21.9 mph N/A   Clear
3:35 AM 72.7 °F 63.9 °F 74% 29.52 in 10.0 mi SSE 17.3 mph 23.0 mph N/A   Clear
3:55 AM 72.5 °F 63.9 °F 74% 29.52 in 10.0 mi SSE 16.1 mph 25.3 mph N/A   Clear
4:15 AM 72.1 °F 63.9 °F 75% 29.51 in 10.0 mi SSE 18.4 mph 21.9 mph N/A   Clear
4:35 AM 71.6 °F 63.9 °F 76% 29.51 in 10.0 mi SSE 18.4 mph 26.5 mph N/A   Clear
4:55 AM 71.6 °F 63.9 °F 76% 29.52 in 10.0 mi SSE 17.3 mph 23.0 mph N/A   Clear
5:15 AM 71.1 °F 63.7 °F 77% 29.51 in 10.0 mi SSE 17.3 mph 25.3 mph N/A   Clear
5:35 AM 70.7 °F 63.9 °F 79% 29.52 in 10.0 mi SSE 16.1 mph 20.7 mph N/A   Clear
5:55 AM 70.7 °F 63.9 °F 79% 29.52 in 10.0 mi SSE 17.3 mph 23.0 mph N/A   Clear
6:15 AM 70.5 °F 63.9 °F 79% 29.52 in 10.0 mi SSE 17.3 mph 25.3 mph N/A   Clear
6:35 AM 70.2 °F 63.9 °F 80% 29.53 in 10.0 mi SSE 17.3 mph - N/A   Clear
6:55 AM 70.3 °F 64.0 °F 80% 29.54 in 10.0 mi SSE 13.8 mph 20.7 mph N/A   Clear
7:15 AM 70.7 °F 64.4 °F 80% 29.57 in 10.0 mi South 8.1 mph - N/A   Scattered Clouds
7:35 AM 71.2 °F 64.6 °F 79% 29.58 in 10.0 mi South 11.5 mph - N/A   Mostly Cloudy
7:55 AM 72.0 °F 64.8 °F 78% 29.59 in 10.0 mi South 6.9 mph 18.4 mph N/A   Overcast
8:15 AM 72.0 °F 64.9 °F 78% 29.59 in 10.0 mi SSE 9.2 mph - N/A   Overcast
8:35 AM 72.5 °F 64.8 °F 77% 29.60 in 10.0 mi SE 3.5 mph - N/A   Overcast
8:55 AM 71.6 °F 65.3 °F 80% 29.62 in 10.0 mi NNE 5.8 mph - N/A   Mostly Cloudy
9:15 AM 68.4 °F 59.2 °F 72% 29.64 in 10.0 mi North 19.6 mph 26.5 mph N/A   Mostly Cloudy
9:35 AM 61.7 °F 55.0 °F 79% 29.66 in 10.0 mi North 25.3 mph 34.5 mph N/A   Overcast
9:55 AM 61.7 °F 54.7 °F 78% 29.67 in 10.0 mi North 19.6 mph 32.2 mph N/A   Overcast
10:15 AM 61.5 °F 54.3 °F 77% 29.68 in 10.0 mi North 25.3 mph 32.2 mph N/A   Overcast
10:35 AM 61.2 °F 53.6 °F 76% 29.71 in 10.0 mi NNW 18.4 mph 28.8 mph N/A   Overcast
10:55 AM 61.3 °F 53.2 °F 75% 29.73 in 10.0 mi North 20.7 mph 32.2 mph N/A   Overcast
11:15 AM 61.7 °F 52.3 °F 71% 29.75 in 10.0 mi NNW 25.3 mph 32.2 mph N/A   Overcast
11:35 AM 61.7 °F 52.0 °F 70% 29.76 in 10.0 mi NNW 21.9 mph 28.8 mph N/A   Overcast
11:55 AM 61.9 °F 51.4 °F 69% 29.78 in 10.0 mi North 23.0 mph 29.9 mph N/A   Overcast
12:15 PM 62.2 °F 51.8 °F 69% 29.78 in 10.0 mi North 20.7 mph 27.6 mph N/A   Overcast
12:35 PM 62.4 °F 50.2 °F 64% 29.79 in 10.0 mi NNW 18.4 mph 32.2 mph N/A   Overcast
12:55 PM 63.9 °F 50.0 °F 61% 29.79 in 10.0 mi North 23.0 mph 31.1 mph N/A   Overcast
1:15 PM 66.2 °F 50.2 °F 56% 29.79 in 10.0 mi North 20.7 mph 27.6 mph N/A   Overcast
1:35 PM 68.4 °F 50.9 °F 54% 29.79 in 10.0 mi NNW 20.7 mph 27.6 mph N/A   Overcast
1:55 PM 70.7 °F 51.3 °F 50% 29.78 in 10.0 mi North 23.0 mph - N/A   Mostly Cloudy
2:15 PM 72.0 °F 51.3 °F 48% 29.78 in 10.0 mi North 18.4 mph 25.3 mph N/A   Clear
2:35 PM 73.2 °F 50.0 °F 44% 29.78 in 10.0 mi NNW 19.6 mph - N/A   Clear
2:55 PM 73.9 °F 50.0 °F 43% 29.79 in 10.0 mi North 18.4 mph 25.3 mph N/A   Clear
3:15 PM 75.0 °F 49.3 °F 40% 29.79 in 10.0 mi North 15.0 mph 23.0 mph N/A   Clear
3:35 PM 76.1 °F 50.2 °F 40% 29.79 in 10.0 mi NNW 17.3 mph 21.9 mph N/A   Clear
3:55 PM 76.5 °F 50.0 °F 39% 29.79 in 10.0 mi North 12.7 mph 20.7 mph N/A   Clear
4:15 PM 77.2 °F 50.0 °F 38% 29.79 in 10.0 mi North 15.0 mph 20.7 mph N/A   Clear
4:35 PM 77.5 °F 49.3 °F 37% 29.79 in 10.0 mi North 12.7 mph 20.7 mph N/A   Clear
4:55 PM 77.9 °F 49.1 °F 36% 29.79 in 10.0 mi NNW 15.0 mph 20.7 mph N/A   Clear
5:15 PM 78.1 °F 48.2 °F 35% 29.79 in 10.0 mi North 8.1 mph 16.1 mph N/A   Clear
5:35 PM 78.6 °F 47.1 °F 33% 29.79 in 10.0 mi North 11.5 mph - N/A   Clear
5:55 PM 78.4 °F 47.7 °F 34% 29.80 in 10.0 mi NNW 10.4 mph - N/A   Clear
6:15 PM 78.8 °F 45.3 °F 31% 29.80 in 10.0 mi NNW 8.1 mph - N/A   Clear
6:35 PM 78.6 °F 46.6 °F 32% 29.80 in 10.0 mi NNE 5.8 mph - N/A   Clear
6:55 PM 77.9 °F 47.8 °F 35% 29.80 in 10.0 mi NNE 8.1 mph - N/A   Clear
7:15 PM 78.1 °F 47.8 °F 34% 29.80 in 10.0 mi NNE 4.6 mph - N/A   Clear
7:35 PM 78.1 °F 48.4 °F 35% 29.80 in 10.0 mi NE 3.5 mph - N/A   Clear
7:55 PM 79.0 °F 46.6 °F 32% 29.80 in 10.0 mi ENE 4.6 mph - N/A   Clear
8:15 PM 74.1 °F 52.3 °F 46% 29.80 in 10.0 mi East 4.6 mph - N/A   Clear
8:35 PM 73.6 °F 51.1 °F 45% 29.80 in 10.0 mi East 4.6 mph - N/A   Clear
8:55 PM 73.2 °F 50.0 °F 44% 29.81 in 7.0 mi Calm Calm - N/A   Clear
9:15 PM 69.1 °F 51.8 °F 54% 29.81 in 10.0 mi Calm Calm - N/A   Clear
9:35 PM 65.8 °F 50.9 °F 58% 29.82 in 10.0 mi Calm Calm - N/A   Clear
9:55 PM 64.2 °F 50.4 °F 61% 29.82 in 10.0 mi NW 3.5 mph - N/A   Clear
10:15 PM 62.6 °F 49.8 °F 63% 29.83 in 10.0 mi WNW 3.5 mph - N/A   Clear
10:35 PM 60.8 °F 50.9 °F 70% 29.84 in 10.0 mi WNW 5.8 mph - N/A   Clear
10:55 PM 58.8 °F 50.4 °F 73% 29.85 in 5.0 mi Calm Calm - N/A   Haze
11:35 PM 58.3 °F 50.2 °F 74% 29.89 in 7.0 mi West 4.6 mph - N/A   Clear
11:55 PM 57.0 °F 49.3 °F 75% 29.89 in 10.0 mi Calm Calm - N/A   Clear